Das Wetter in  D-61279 Heinzenberg / Taunus





Wetter Minimum- & Maximum-Werte im August 2016

Standort: Heinzenberg / Taunus - Höhe 297 m         8 24' 1" Ost 50 21' 51" Nord
(   3-stündige Aktualisierung    letzte Aktualisierung um 19:04 am 31.08.2016  )


Messgrösse

Minimum

Maximum

Durchschnitt

Temperatur West /
Luftfeuchte West
Anklicken für Monats-Diagramm

4,2 C

06:34
11.08.2016

30 %

16:18
25.08.2016

37,6 C

15:49
27.08.2016

92 %

07:06
03.08.2016

Temp

18,6 C

Feuchte

69 %

Temperatur Ost /
Luftfeuchte Ost
Anklicken für Monats-Diagramm

4,4 C

06:29
11.08.2016

--

--
--

37,8 C

15:49
27.08.2016

--

--
--

18,9 C

--

Luftdruck Anklicken für Monats-Diagramm

1006,6 hPa

16:56
18.08.2016

1029,2 hPa

06:30
07.08.2016

1018,7 hPa

Taupunkt

2,1 C

06:34
11.08.2016

20,2 C

16:20
28.08.2016

12,3 C

Windchill
( gefühlte Temperatur )

4,2 C

06:34
11.08.2016

37,6 C

15:49
27.08.2016

17,7 C

Windgeschwindigkeit /
Windrichtung
Anklicken für Monats-Diagramm

---

55,2 km/h / W-SW

11:30
07.08.2016

6,6 km/h
W-SW

Helligkeit /
Sonnenschein
Anklicken für Monats-Diagramm
Anklicken für Monats-Diagramm

Sonnenschein:

251:02 Stunden

Max: 13:20 Std am
07.08.2016

122 klux

14:09
21.08.2016

43 klux

Solarstrahlung Anklicken für Monats-Diagramm

---

834 W/m

14:09
21.08.2016

317 W/m

Regenmenge
    August 2016
Anklicken für Monats-Diagramm

Insgesamt 30,4 l/m

in 46:23 Stunden
an 14 Tagen

7,9 l/m

06:21
03.08.2016

Gesamtmenge

30,4 l/m

Regen-Tage
    August 2016
Anklicken für Monats-Diagramm

>   0 mm/Tag

>   2 mm/Tag

>   5 mm/Tag

> 10 mm/Tag

> 20 mm/Tag

14 Tage     
6 Tage     
2 Tage     
0 Tage     
0 Tage     

Eisige Tage August 2016 / 2015

Tmin ≤ -10C     

0 Tage

/

0 Tage

Eistage August 2016 / 2015

Tmax <     0C     

0 Tage

/

0 Tage

Frosttage August 2016 / 2015

Tmin ≤     0C     

0 Tage

/

0 Tage

Kalte Tage August 2016 / 2015

Tmax <   10C     

0 Tage

/

0 Tage

Warme Tage August 2016 / 2015

Tmax ≥   20C     

25 Tage

/

28 Tage

Sommertage August 2016 / 2015

Tmax ≥   25C     

18 Tage

/

24 Tage

Heisse Tage August 2016 / 2015

Tmax ≥   30C     

7 Tage

/

15 Tage


Monatsdiagramm August 2016

Die Kurven zeigen den Durchschnittswert des jeweiligen Tages an


Wetter-Monatsübersicht August 2016
Datum
  Temperatur
   Luftdruck
   Wind
  Regen
   Luftfeuchte
   Helligkeit

Sonnen-
schein


Temp.

Min.
Temp.

Max.
Temp.


Luftdruck

Min.
Luftdruck

Max.
Luftdruck

-Geschw.
Haupt-Richtg.

Max.
Wind

Menge /
Dauer


Feuchte

Min.
Feuchte

Max.
Feuchte


Helligkeit

Max.
Helligkeit

1.
August
16,3 C9,0 C
06:30
23,5 C
17:55
1018,5 hPa1016,4 hPa
18:55
1020,1 hPa
06:30
4,4 km/h
W-NW
20,4 km/h
14:05  
---
69 %46 %
13:45
89 %
08:45
46,3 klux116,0 klux
12:15
9:51 Std 
2.
August
15,2 C13,0 C
07:01
17,2 C
18:21
1016,0 hPa1015,0 hPa
18:21
1018,4 hPa
01:56
10,0 km/h
W-SW
36,0 km/h
17:06  
4,0 l/m
10:20 Stunden
84 %73 %
00:01
90 %
23:56
21 klux75 klux
15:11
20 Min 
3.
August
17,4 C15,6 C
00:01
19,5 C
12:16
1013,3 hPa1011,8 hPa
22:11
1015,1 hPa
00:01
10,1 km/h
W-SW
28,4 km/h
14:31  
7,9 l/m
12:10 Stunden
89 %85 %
12:16
92 %
07:06
18,0 klux63,1 klux
11:01
5 Min 
4.
August
17,3 C15,2 C
23:54
19,5 C
15:23
1012,1 hPa1010,6 hPa
15:18
1014,2 hPa
23:54
4,7 km/h
W-SW
26,8 km/h
16:43  
4,7 l/m
6:46 Stunden
88 %84 %
03:23
92 %
01:33
15,6 klux51,4 klux
14:48
10 Min 
5.
August
16,4 C12,5 C
06:39
23,1 C
17:29
1017,5 hPa1013,1 hPa
00:19
1022,5 hPa
23:00
6,9 km/h
NW
24,8 km/h
12:14  
0,2 l/m
15 Minuten
79 %58 %
15:24
92 %
07:04
43,1 klux117,0 klux
12:54
6:45 Std 
6.
August
17,7 C12,0 C
05:30
25,3 C
16:40
1024,9 hPa1022,5 hPa
00:00
1028,7 hPa
23:50
5,6 km/h
NW
23,2 km/h
13:05  
---
72 %46 %
15:05
89 %
07:30
48 klux115 klux
13:20
9:15 Std 
7.
August
19,2 C10,5 C
06:30
28,5 C
18:05
1026,1 hPa1021,8 hPa
22:05
1029,2 hPa
06:30
6,9 km/h
W-SW
55,2 km/h
11:30  
---
68 %46 %
16:50
88 %
08:40
57 klux109 klux
12:30
13:20 Std 
8.
August
19,5 C14,8 C
04:26
26,6 C
15:01
1019,6 hPa1018,0 hPa
15:01
1022,3 hPa
01:36
12,8 km/h
W
40,3 km/h
09:56  
---
67 %42 %
15:01
83 %
04:56
53 klux100 klux
14:11
10:00 Std 
9.
August
16,4 C13,2 C
07:07
22,4 C
16:17
1020,0 hPa1018,5 hPa
16:17
1020,6 hPa
07:07
8,6 km/h
NW
32,0 km/h
12:57  
0,3 l/m
35 Minuten
67 %43 %
15:22
86 %
07:07
49 klux111 klux
12:32
7:50 Std 
10.
August
12,0 C7,8 C
23:59
18,5 C
16:48
1021,1 hPa1019,1 hPa
15:18
1024,4 hPa
23:59
5,0 km/h
W-NW
32,3 km/h
17:43  
7,3 l/m
2:30 Stunden
77 %52 %
17:08
89 %
12:53
33 klux119 klux
13:38
4:30 Std 
11.
August
11,0 C4,2 C
06:34
17,4 C
13:49
1023,4 hPa1021,1 hPa
16:19
1025,8 hPa
07:44
8,6 km/h
W-SW
32,0 km/h
18:44  
2,1 l/m
5:06 Stunden
73 %41 %
15:34
91 %
09:44
39 klux115 klux
12:14
5:55 Std 
12.
August
16,1 C11,6 C
00:00
21,3 C
16:50
1022,9 hPa1020,7 hPa
04:35
1024,2 hPa
23:46
9,0 km/h
W-SW
25,9 km/h
15:55  
0,9 l/m
3:00 Stunden
85 %74 %
15:50
90 %
07:00
20 klux77 klux
15:45
49 Min 
13.
August
21,0 C13,8 C
06:36
28,4 C
16:41
1021,9 hPa1018,9 hPa
18:21
1024,2 hPa
00:01
9,1 km/h
W
33,8 km/h
10:51  
---
68 %44 %
15:31
89 %
08:21
55,9 klux108,0 klux
12:46
12:14 Std 
14.
August
19,3 C12,2 C
06:42
26,7 C
15:17
1021,8 hPa1020,1 hPa
15:17
1023,2 hPa
23:58
3,2 km/h
NW
18,4 km/h
14:22  
---
69 %50 %
15:12
87 %
09:17
46 klux113 klux
13:27
7:56 Std 
15.
August
19,8 C12,5 C
07:07
28,7 C
17:18
1021,4 hPa1017,9 hPa
18:38
1023,8 hPa
07:07
2,7 km/h
SO
19,2 km/h
16:48  
---
64 %40 %
17:18
86 %
08:18
56 klux105 klux
14:43
12:40 Std 
16.
August
18,6 C9,2 C
07:04
29,2 C
17:39
1017,1 hPa1012,6 hPa
18:09
1021,5 hPa
00:39
3,8 km/h
SO
17,9 km/h
16:29  
---
62 %35 %
16:24
84 %
07:54
54 klux98 klux
13:34
12:20 Std 
17.
August
18,7 C9,5 C
06:35
29,2 C
17:00
1013,1 hPa1009,5 hPa
18:15
1015,9 hPa
06:35
3,5 km/h
SO
20,6 km/h
14:05  
---
58 %32 %
17:15
82 %
07:50
54,0 klux97,7 klux
13:15
12:26 Std 
18.
August
17,7 C8,1 C
07:06
27,6 C
14:31
1009,5 hPa1006,6 hPa
16:56
1012,6 hPa
01:51
4,7 km/h
W-SW
27,4 km/h
17:11  
---
61 %39 %
14:31
82 %
07:36
51,1 klux110,0 klux
14:11
10:46 Std 
19.
August
19,6 C12,9 C
07:47
27,1 C
15:07
1009,8 hPa1008,7 hPa
15:07
1011,3 hPa
08:32
5,5 km/h
W-SW
30,3 km/h
14:57  
---
16 Minuten
69 %50 %
14:42
84 %
09:07
40 klux107 klux
14:17
6:40 Std 
20.
August
17,7 C13,7 C
23:49
19,9 C
14:48
1012,9 hPa1010,5 hPa
00:03
1016,4 hPa
23:49
7,0 km/h
W-SW
31,0 km/h
09:48  
2,7 l/m
2:55 Stunden
76 %67 %
14:48
83 %
22:39
21 klux75 klux
17:18
3:35 Std 
21.
August
16,1 C12,7 C
06:39
21,6 C
16:59
1018,3 hPa1016,3 hPa
02:44
1023,5 hPa
23:45
17,3 km/h
W
51,0 km/h
14:24  
0,3 l/m
1:25 Stunden
74 %55 %
16:59
87 %
02:09
40,1 klux122,0 klux
14:09
6:00 Std 
22.
August
16,5 C12,4 C
06:15
21,5 C
16:40
1025,7 hPa1023,5 hPa
00:00
1027,6 hPa
23:46
9,5 km/h
W-SW
26,3 km/h
16:45  
---
35 Minuten
75 %63 %
16:40
84 %
07:30
28 klux88 klux
16:40
3:45 Std 
23.
August
20,4 C11,1 C
06:51
31,6 C
17:36
1026,2 hPa1022,6 hPa
18:46
1029,2 hPa
07:26
2,8 km/h
SO
20,8 km/h
18:56  
---
65 %35 %
16:56
88 %
08:36
54,7 klux94,3 klux
13:26
12:30 Std 
24.
August
22,4 C12,3 C
06:42
33,3 C
16:27
1022,2 hPa1018,5 hPa
18:46
1024,9 hPa
06:42
8,2 km/h
SO
30,3 km/h
16:37  
---
61 %37 %
17:12
84 %
08:27
54,6 klux93,0 klux
13:52
12:25 Std 
25.
August
23,6 C13,8 C
07:23
34,8 C
16:13
1017,5 hPa1013,2 hPa
19:13
1020,5 hPa
07:23
7,7 km/h
SO
29,3 km/h
12:18  
---
57 %30 %
16:18
84 %
08:38
54,4 klux92,7 klux
13:38
12:25 Std 
26.
August
24,7 C13,9 C
06:54
36,9 C
17:24
1015,7 hPa1013,8 hPa
17:24
1017,5 hPa
23:44
3,8 km/h
SO
16,3 km/h
15:34  
---
59 %33 %
16:19
80 %
07:39
53,0 klux91,3 klux
13:49
12:10 Std 
27.
August
26,3 C16,7 C
07:04
37,6 C
15:49
1016,2 hPa1012,9 hPa
18:54
1019,1 hPa
08:29
3,7 km/h
SO
25,8 km/h
17:34  
---
58 %31 %
17:04
82 %
07:44
52,7 klux89,7 klux
13:14
11:50 Std 
28.
August
23,9 C16,7 C
07:10
33,8 C
14:55
1013,3 hPa1010,3 hPa
15:15
1015,5 hPa
23:51
8,2 km/h
W-SW
44,5 km/h
17:25  
---
15 Minuten
62 %40 %
14:25
79 %
08:35
42,7 klux97,0 klux
14:50
7:40 Std 
29.
August
19,1 C15,0 C
07:11
23,4 C
14:11
1018,3 hPa1015,5 hPa
00:01
1023,3 hPa
23:57
6,4 km/h
NW
25,4 km/h
18:21  
---
70 %57 %
14:16
82 %
08:21
34,9 klux106,0 klux
11:16
4:35 Std 
30.
August
18,9 C11,7 C
07:27
28,4 C
16:22
1023,9 hPa1021,0 hPa
18:42
1026,3 hPa
10:22
2,1 km/h
NO
13,0 km/h
11:12  
---
15 Minuten
63 %32 %
17:17
86 %
08:27
51 klux102 klux
12:32
10:35 Std 
31.
August
18,9 C8,7 C
06:33
30,2 C
17:33
1020,5 hPa1016,7 hPa
18:43
1023,9 hPa
01:33
2,1 km/h
SO
12,6 km/h
13:03  
---
60 %35 %
17:33
81 %
08:48
49 klux102 klux
13:23
9:40 Std 



August
2016

Temperatur

  

Luftdruck

  

Wind

  

Regen

  

Luftfeuchte

  

Helligkeit

Sonnen-
schein

Min

Max

Min

Max

Max

Max

Min

Max

Max

Max

18,6 C

4,2 C

06:34 Uhr
11.08.2016

37,6 C

15:49 Uhr
27.08.2016

1018,7 hPa

1006,6 hPa

16:56 Uhr
18.08.2016

1029,2 hPa

06:30 Uhr
07.08.2016

6,6 km/h

W-SW

55,2 km/h

11:30 Uhr
07.08.2016

7,9 l/m

12:10 Stunden
03.08.2016

69 %

30 %

16:18 Uhr
25.08.2016

92 %

07:06 Uhr
03.08.2016

43 klux

122,0 klux

14:09 Uhr
21.08.2016

13:20 Std

am
07.08.2016

Gesamt

Gesamt

30,4 l/m

14 Tage
46:23 h

251:02 Std


Wetter-Diagramme August 2016     Heinzenberg / Taunus   
TemperaturLuftfeuchte
SolarstrahlungLuftdruck
HelligkeitSonnenschein
RegenmengeRegendauer
Wind-GeschwindigkeitWind-Richtung